Flag for U.S.A. Weather past 2 weeks in Fresno, California, U.S.A.

Now
71 °F

Clear.


Feels Like: 75 °F
Forecast: 68 / 94 °F
Wind: 10 mph from Northwest

Location: Fresno Air Terminal

Current Time: Aug 21, 2014 at 3:54:47 AM

Latest Report: Aug 21, 2014 at 2:53 AM


Visibility: 10 mi

Pressure: 29.86 "Hg

Humidity: 66%

Dew point: 59 °F

Location of FresnoLocation

Historic Weather in Fresno — Graph

°F

Fresno temperature yesterday

Maximum temperature yesterday: 93 °F (at 4:53 PM)
Minimum temperature yesterday: 66 °F (at 6:53 AM)
Average temperature yesterday: 80 °F

Past Weeks' High & Low Weather Summary

 TemperatureHumidityPressure
High103 °F (Aug 11, 3:53 PM)87% (Aug 6, 5:53 AM)30.00 "Hg (Aug 6, 5:53 AM)
Low66 °F (Aug 20, 6:53 AM)8% (Aug 15, 6:53 PM)29.70 "Hg (Aug 18, 6:53 PM)
Average85 °F37%29.86 "Hg
* Reported Aug 6 1:53 AM — Aug 21 1:53 AM, Fresno, Weather by CustomWeather, © 2014

Note: Actual official high and low records may vary slightly from our data, if they occured in-between our weather recording intervals... More about our weather records

Advertising

Fresno weather history for previous 24 hours

 ConditionsComfort  
Time TempWeatherWind HumidityBarometerVisibility
1:53 AM
Aug 21
73 °FClear.12 mph59%29.85 "Hg10 mi
12:53 AM74 °FClear.12 mph56%29.85 "Hg10 mi
11:53 PM
Aug 20
77 °FClear.9 mph48%29.85 "Hg10 mi
10:53 PM80 °FClear.12 mph44%29.85 "Hg10 mi
9:53 PM83 °FClear.9 mph37%29.84 "Hg10 mi
8:53 PM85 °FPassing clouds.9 mph34%29.82 "Hg10 mi
7:53 PM87 °FPassing clouds.13 mph31%29.80 "Hg10 mi
6:53 PM90 °FPassing clouds.12 mph27%29.79 "Hg10 mi
5:53 PM92 °FPassing clouds.6 mph23%29.80 "Hg10 mi
4:53 PM93 °FPassing clouds.9 mph21%29.80 "Hg10 mi
3:53 PM92 °FPassing clouds.7 mph26%29.81 "Hg10 mi
2:53 PM92 °FPassing clouds.6 mph26%29.84 "Hg10 mi
1:53 PM90 °FPassing clouds.8 mph27%29.85 "Hg10 mi
12:53 PM87 °FPassing clouds.5 mph31%29.87 "Hg10 mi
11:53 AM84 °FSunny.N/A33%29.88 "Hg10 mi
10:53 AM79 °FSunny.8 mph58%29.89 "Hg10 mi
9:53 AM77 °FSunny.5 mph40%29.89 "Hg10 mi
8:53 AM73 °FSunny.6 mph51%29.88 "Hg10 mi
7:53 AM69 °FSunny.No wind66%29.86 "Hg10 mi
6:53 AM66 °FClear.5 mph73%29.85 "Hg10 mi
5:53 AM67 °FPassing clouds.5 mph71%29.83 "Hg10 mi
4:53 AM68 °FClear.5 mph68%29.82 "Hg10 mi
3:53 AM69 °FClear.3 mph66%29.80 "Hg10 mi
Weather by CustomWeather, © 2014

See weather overviewHow to use our weather pages